Weather History for KBLV - January, 2014

Change the Weather History Date:

Wednesday, January 8, 2014

  Actual Average Record
Temperature  
Mean Temperature 25 °F -  
Max Temperature 31 °F 35 °F 69 °F (2003)
Min Temperature 19 °F 17 °F -10 °F (1979)
Degree Days  
Heating Degree Days 40    
Moisture  
Dew Point 17 °F    
Average Humidity 72    
Maximum Humidity 78    
Minimum Humidity 60    
Precipitation  
Precipitation 0.00 in - - ()
Snow  
Snow 0.00 in - - ()
Snow Depth 8.00 in    
Sea Level Pressure  
Sea Level Pressure 30.40 in    
Wind  
Wind Speed 4 mph (NNE)    
Max Wind Speed 10 mph    
Max Gust Speed -    
Visibility 10 miles    
Events      
Averages and records for this station are not official NWS values.
T = Trace of Precipitation, MM = Missing Value Source: NWS Daily Summary

Daily Weather History Graph

Daily Weather History Graph

Search for Another Location

Airport or City:

Trip Planner

Search our weather history database for the weather conditions in past years. The results will help you decide how hot, cold, wet, or windy it might be!

Date:

Astronomy

Jan. 08, 2014 Rise Set
Actual Time 7:17 AM CST 4:55 PM CST
Civil Twilight 6:47 AM CST 5:24 PM CST
Nautical Twilight 6:14 AM CST 5:57 PM CST
Astronomical Twilight 5:42 AM CST 6:29 PM CST
Moon 11:45 AM CST (1/8) 12:25 AM CST (1/8)
Length of Visible Light 10h 37m
Length of Day
9h 38m
First Quarter, 56% of the Moon is Illuminated
Jan 8
First Quarter
Jan 15
Full
Jan 23
Last Quarter
Jan 30
New
Feb 6
First Quarter

Hourly Weather History & Observations

Time (CST) Temp. Windchill Dew Point Humidity Pressure Visibility Wind Dir Wind Speed Gust Speed Precip Events Conditions
12:58 AM 19.0 °F - 12.0 °F 74% 30.31 in 10.0 mi Variable 2.3 mph - N/A   Mostly Cloudy
1:58 AM 22.1 °F 17.4 °F 14.0 °F 71% 30.31 in 10.0 mi Variable 3.5 mph - N/A   Mostly Cloudy
2:58 AM 23.2 °F - 14.9 °F 71% 30.32 in 10.0 mi Variable 2.3 mph - N/A   Clear
3:58 AM 23.4 °F 17.4 °F 15.6 °F 72% 30.33 in 10.0 mi Variable 4.6 mph - N/A   Mostly Cloudy
4:58 AM 23.7 °F - 15.8 °F 72% 30.33 in 10.0 mi Variable 2.3 mph - N/A   Mostly Cloudy
5:58 AM 24.1 °F - 17.1 °F 75% 30.35 in 10.0 mi Variable 2.3 mph - N/A   Overcast
6:58 AM 23.5 °F - 17.6 °F 78% 30.37 in 10.0 mi SSE 2.3 mph - N/A   Overcast
7:58 AM 23.5 °F - 17.4 °F 77% 30.38 in 10.0 mi Calm Calm - N/A   Partly Cloudy
8:58 AM 25.3 °F - 17.4 °F 72% 30.41 in 10.0 mi Variable 1.2 mph - N/A   Mostly Cloudy
9:58 AM 26.4 °F 20.9 °F 18.7 °F 73% 30.42 in 10.0 mi Variable 4.6 mph - N/A   Scattered Clouds
10:58 AM 28.6 °F - 18.3 °F 65% 30.40 in 10.0 mi Variable 1.2 mph - N/A   Partly Cloudy
11:58 AM 29.8 °F 24.9 °F 19.6 °F 66% 30.39 in 10.0 mi Variable 4.6 mph - N/A   Scattered Clouds
12:58 PM 31.1 °F 27.7 °F 18.5 °F 60% 30.38 in 10.0 mi Variable 3.5 mph - N/A   Mostly Cloudy
1:58 PM 31.3 °F 27.9 °F 19.6 °F 62% 30.39 in 10.0 mi NW 3.5 mph - N/A   Scattered Clouds
2:58 PM 31.8 °F 26.2 °F 21.7 °F 66% 30.40 in 10.0 mi NE 5.8 mph - N/A   Overcast
3:58 PM 29.8 °F 20.9 °F 21.0 °F 70% 30.41 in 10.0 mi NNE 10.4 mph - N/A   Mostly Cloudy
4:58 PM 27.5 °F 20.2 °F 19.6 °F 72% 30.41 in 10.0 mi NNE 6.9 mph - N/A   Overcast
5:58 PM 26.2 °F 17.8 °F 18.3 °F 72% 30.44 in 10.0 mi North 8.1 mph - N/A   Overcast
6:58 PM 24.1 °F 14.4 °F 17.2 °F 75% 30.45 in 10.0 mi NNE 9.2 mph - N/A   Mostly Cloudy
7:58 PM 21.9 °F 12.5 °F 15.1 °F 75% 30.46 in 10.0 mi North 8.1 mph - N/A   Overcast
8:58 PM 20.8 °F 10.4 °F 13.5 °F 73% 30.47 in 10.0 mi North 9.2 mph - N/A   Overcast
9:58 PM 20.1 °F 12.3 °F 13.6 °F 76% 30.48 in 10.0 mi NNE 5.8 mph - N/A   Overcast
10:58 PM 19.9 °F 13.4 °F 13.5 °F 76% 30.48 in 10.0 mi NE 4.6 mph - N/A   Overcast
11:58 PM 20.1 °F 10.3 °F 13.8 °F 77% 30.47 in 10.0 mi ENE 8.1 mph - N/A   Overcast